www.pogodaiklimat.ru

Погода и климат >> Архив погоды >> Оман >> Эль-Бурайми


ПОГОДА в Эль-Бурайми

  • Прогноз погоды в Эль-Бурайми
  • Монитор погоды в Эль-Бурайми

АРХИВ ПОГОДЫ в Эль-Бурайми

Время (UTC), дата Ветер
(напр.,м/с)
 
Видим.   Явления Облачность Т
(С)
Тd
(С)
f
(%)
Тe
(С)
Тes
(С)
Комфортность P
(гПа)
Po
(гПа)
Тmin
(С)
Tmax
(С)
R
(мм)
R24
(мм)
S
(см)
15 11.08 СВ 9 н/о н/о +38.7 +27.1 52 +56 +56 опасность
перегрева
990.9 952.7
18 11.08 С 5 н/о н/о +36.2 +23.0 47 +46 +46 опасность
перегрева
993.4 954.7 +44.7
21 11.08 С 2 н/о н/о +34.7 +20.4 43 +41 +41 опасность
перегрева
992.9 954.0
00 12.08 СВ 3 н/о н/о +31.3 +28.0 83 +52 +52 опасность
перегрева
992.7 953.6
03 12.08 З 1 н/о н/о +31.8 +28.2 81 +53 +53 опасность
перегрева
994.1 954.9
06 12.08 С 2 н/о н/о +37.9 +24.7 47 +50 +50 опасность
перегрева
994.4 955.9 +31.0
09 12.08 В 3 н/о н/о +42.8 +18.1 24 +46 +46 опасность
перегрева
992.2 954.2
12 12.08 ЮВ 11 н/о н/о +34.6 +17.9 37 +38 +38 очень
душно
992.5 953.6 8
15 12.08 В 3 н/о н/о +32.7 +22.3 54 +42 +42 опасность
перегрева
994.4 955.2
18 12.08 С 1 н/о н/о +32.5 +23.7 60 +44 +44 опасность
перегрева
995.5 956.3 +43.5
21 12.08 В 1 н/о н/о +32.0 +24.9 66 +45 +45 опасность
перегрева
994.8 955.6
00 13.08 В 4 н/о н/о +31.5 +25.2 69 +45 +45 опасность
перегрева
995.1 955.8 8
03 13.08 В 3 н/о н/о +32.1 +25.3 67 +46 +46 опасность
перегрева
996.6 957.3
06 13.08 Ю 5 н/о н/о +35.7 +19.7 39 +41 +41 опасность
перегрева
997.6 958.6 +30.9
09 13.08 ЮЗ 3 н/о н/о +40.7 +17.0 25 +43 +43 опасность
перегрева
995.7 957.3
12 13.08 Ю 2 н/о н/о +41.9 +15.7 22 +43 +43 опасность
перегрева
994.1 955.9
15 13.08 В 4 н/о н/о +38.0 +22.3 41 +47 +47 опасность
перегрева
995.3 956.7
18 13.08 С 1 н/о н/о +36.9 +24.5 49 +49 +49 опасность
перегрева
996.8 958.1 +43.1
21 13.08 В 1 н/о н/о +35.4 +24.6 54 +48 +48 опасность
перегрева
996.3 957.4
00 14.08 ЮВ 4 н/о н/о +34.1 +18.2 39 +38 +38 очень
душно
996.9 957.7
03 14.08 ЮВ 3 н/о н/о +33.4 +17.6 39 +37 +37 очень
душно
998.4 959.0
06 14.08 Ю 3 н/о н/о +38.5 +16.9 28 +41 +41 опасность
перегрева
998.5 959.8 +33.4
09 14.08 Ю 3 н/о н/о +42.9 +14.7 19 +43 +43 опасность
перегрева
996.0 957.8
12 14.08 В 4 н/о н/о +41.8 +15.3 21 +43 +43 опасность
перегрева
994.7 956.5
15 14.08 В 5 н/о н/о +40.5 +16.7 25 +43 +43 опасность
перегрева
995.3 957.0
18 14.08 В 5 н/о н/о +38.8 +15.8 26 +40 +40 очень
душно
997.6 958.9 +44.4
21 14.08 В 2 н/о н/о +37.1 +12.4 23 +37 +37 очень
жарко
997.3 958.4
00 15.08 ЮВ 3 н/о н/о +33.5 +17.7 39 +37 +37 очень
душно
998.6 959.3
03 15.08 ЮВ 3 н/о н/о +32.7 +18.6 43 +37 +37 очень
душно
960.5
06 15.08 Ю 4 н/о н/о +38.4 +16.8 28 +41 +41 опасность
перегрева
999.6 960.8 +32.1
09 15.08 В 7 н/о н/о +42.4 +7.3 12 +40 +40 очень
жарко
997.6 959.2
12 15.08 В 5 н/о н/о +43.1 +7.9 12 +41 +41 опасность
перегрева
995.6 957.4
15 15.08 В 6 н/о н/о +40.3 +12.7 20 +40 +40 очень
жарко
995.9 957.4
18 15.08 В 5 н/о н/о +38.6 +8.2 16 +37 +37 очень
жарко
998.0 959.2 +43.6
21 15.08 ЮВ 1 н/о н/о +37.1 +4.3 13 +34 +34 очень
жарко
998.1 959.1
00 16.08 ЮВ 4 н/о н/о +33.0 +19.7 46 +39 +39 очень
душно
998.4 959.0
03 16.08 ЮВ 4 н/о н/о +31.7 +20.2 51 +38 +38 очень
душно
999.7 960.1
06 16.08 Ю 6 н/о н/о +36.9 +18.6 34 +41 +41 опасность
перегрева
999.3 960.4 +31.6
09 16.08 ЮЗ 4 н/о н/о +41.5 +14.5 21 +42 +42 опасность
перегрева
996.9 958.5
12 16.08 С 3 н/о н/о +43.2 +12.3 16 +42 +42 опасность
перегрева
994.2 956.1
15 16.08 В 6 н/о н/о +41.0 +6.4 12 +38 +38 очень
жарко
994.7 956.3
18 16.08 СЗ 3 н/о н/о +37.8 +16.3 28 +40 +40 очень
душно
996.4 957.7 +43.9
21 16.08 В 3 н/о н/о +36.8 +6.9 16 +34 +34 очень
жарко
996.0 957.1
00 17.08 Ю 5 н/о н/о +33.2 +19.5 45 +39 +39 очень
душно
995.8 956.6
03 17.08 Ю 4 н/о н/о +32.9 +18.8 43 +38 +38 очень
душно
997.5 958.2
06 17.08 Ю 7 н/о н/о +38.3 +16.8 28 +41 +41 опасность
перегрева
997.5 958.8 +32.3
09 17.08 ЮЗ 3 н/о н/о +42.2 +14.1 19 +42 +42 опасность
перегрева
995.3 957.1
12 17.08 В 10 н/о н/о +41.2 +10.6 16 +40 +40 очень
жарко
994.3 955.9
15 17.08 В 5 н/о н/о +40.4 +11.0 17 +39 +39 очень
жарко
994.0 955.6
18 17.08 В 4 н/о н/о +37.3 +15.3 27 +39 +39 очень
душно
995.5 956.8 +43.7
21 17.08 В 3 н/о н/о +35.9 +12.8 25 +36 +36 очень
жарко
995.7 956.7
00 18.08 ЮВ 5 н/о н/о +34.2 +15.8 33 +36 +36 душно 997.1 957.9
03 18.08 Ю 5 н/о н/о +34.4 +16.2 34 +37 +37 очень
душно
998.6 959.4
06 18.08 ЮВ 7 н/о н/о +38.7 +12.8 21 +38 +38 очень
жарко
999.0 960.3 +33.1
09 18.08 Ю 6 н/о н/о +42.0 +12.0 17 +41 +41 опасность
перегрева
997.4 959.0
12 18.08 С 7 н/о н/о +40.4 +17.6 27 +43 +43 опасность
перегрева
996.2 957.8

 

Местоположение метеостанции Эль-Бурайми (Оман): широта 24.23 долгота 55.78 высота над уровнем моря 299 м.

В архиве по умолчанию представлена погода в Эль-Бурайми за последнюю неделю. Архивные данные за месяц целиком и за предыдущие месяцы, начиная с января 2011 года, Вы можете получить, выбрав интересующий диапазон дат из раскрывающегося списка и нажав кнопку "Ввод!".


*Определитесь, кто Вы:
робот инопланетянин человек

Внимание! Время в таблицах - всемирное. Для получения местного времени необходимо прибавить поправку, которая равна 4 ч.

Смотрите также архив погоды в соседних городах и на ближайших метеорологических станциях:

Погода в Эль-Айне (ОАЭ) (19 км)
Погода в Кумейре (Оман) (54 км)
Погода в Сухаре (Оман) (90 км)
Погода в Аль-Мактум аэропорту (ОАЭ) (97 км)
Погода в Фуджейре (ОАЭ) (112 км)
Погода в Абу-Даби (ОАЭ) (117 км)
Погода в Ибри (Оман) (117 км)
Погода в Дубае (ОАЭ) (122 км)
Погода в Шардже (ОАЭ) (125 км)
Погода в Абу-Даби Батин аэропорту (ОАЭ) (136 км)

Пояснения к столбцам:

Ветер - указаны скорость ветра в м/с - средняя за 10 мин, порывы в срок и между сроками (в фигурных скобках) и направление, откуда дует ветер: С - северный, СВ - северо-восточный, В - восточный, ЮВ - юго-восточный, Ю - южный, ЮЗ - юго-западный, З - западный, СЗ - северо-западный.
Видимость - горизонтальная дальность видимости в метрах или километрах. При видимости от 1 до 10 км при отсутствии осадков обычно наблюдается дымка, при ухудшении видимости до 1 км и менее - туман. В сухую погоду видимость может ухудшаться дымом, пылью или мглою.
Явления - указаны атмосферные явления, наблюдавшиеся в срок или в последний час перед сроком; фигурными скобками обозначены явления, наблюдавшиеся между сроками (за 1-3 часа до срока); квадратными скобками обозначены град или гололедные отложения с указанием их диаметра в мм.
Облачность - указаны через наклонную черту общая и нижняя облачность в баллах и высота нижней границы облаков в метрах; квадратными скобками обозначены формы облаков: Ci - перистые, Cs - перисто-слоистые, Cc - перисто-кучевые, Ac - высококучевые, As - высокослоистые, Sc - слоисто-кучевые, Ns - слоисто-дождевые, Cu - кучевые, Cb - кучево-дождевые. Подробнее классификацию облаков см. в Атласе облаков (PDF).
T - Температура воздуха - температура, измеренная на высоте 2 м над землей.
Td - Температура точки росы - температура, при понижении до которой содержащийся в воздухе водяной пар достигнет насыщения.
f - Относительная влажность воздуха - влажноcть воздуха, измеренная на высоте 2 м над землей.
Te - Эффективная температура - температура, которую ощущает одетый по сезону человек в тени. Характеристика душности погоды. При расчете учитывается влияние влажности воздуха и скорости ветра на теплоощущения человека.
Tes - Эффективная температура на солнце - температура, которую ощущает человек, с поправкой на солнечный нагрев. Характеристика знойности погоды. Зависит от высоты солнца над горизонтом, облачности и скорости ветра. Ночью, в пасмурную погоду, а также при ветре 12 м/с и более поправка равна нулю.
P - Атмосферное давление - приведенное к уровню моря атмосферное давление.
Po - Атмосферное давление - измеренное на уровне метеостанции атмосферное давление.
Tmin - Минимальная температура - минимум температуры воздуха на высоте 2 м над землей.
Tmax - Максимальная температура - максимум температуры воздуха на высоте 2 м над землей.
R - Количество осадков - Количество выпавших осадков за период времени, мм. При наведении курсора мыши на число - период времени, за который выпало указанное количество осадков.
R24 - Количество осадков - Количество выпавших осадков за 24 часа, мм.
S - Снежный покров - Высота снежного покрова, см. При наведении курсора мыши на число - состояние снежного покрова и степень покрытия местности в баллах.